Home   Weather   Lafayette   Past weeks
Flag for USA

Past Weather in Lafayette, Indiana, USA — Yesterday and Last 2 Weeks

Now
53 °F

Overcast.


Feels Like: 50 °F
Forecast: 57 / 46 °F
Wind: 10 mph from North

Location: Purdue University Airport

Current Time: May 20, 2019 at 6:48:23 pm

Latest Report: May 20, 2019 at 5:54 pm


Visibility: 10 mi

Pressure: 30.13 "Hg

Humidity: 66%

Dew Point: 42 °F

Location of LafayetteLocation

Past Weather in Lafayette — Graph

°F

Lafayette Temperature Yesterday

Maximum temperature yesterday: 74 °F (at 3:54 pm)
Minimum temperature yesterday: 62 °F (at 5:17 pm)
Average temperature yesterday: 69 °F

High & Low Weather Summary for the Past Weeks

 TemperatureHumidityPressure
High86 °F (May 18, 3:54 pm)100% (May 9, 9:10 am)30.18 "Hg (May 9, 9:10 am)
Low37 °F (May 14, 4:54 am)30% (May 14, 4:54 pm)29.66 "Hg (May 19, 3:54 pm)
Average58 °F78%29.91 "Hg
* Reported May 5 4:54 pm — May 20 4:54 pm, Lafayette. Weather by CustomWeather, © 2019

Note: Actual official high and low records may vary slightly from our data, if they occured in-between our weather recording intervals... More about our weather records

Advertising

Lafayette Weather History for the Previous 24 Hours

Scroll right to see more
 ConditionsComfort  
Time TempWeatherWind HumidityBarometerVisibility
4:54 pm
Mon, May 20
54 °FOvercast.10 mph67%30.10 "Hg10 mi
3:54 pm55 °FOvercast.10 mph64%30.10 "Hg10 mi
3:37 pm55 °FMore clouds than sun.9 mph67%30.09 "Hg10 mi
3:21 pm53 °FOvercast.10 mph74%30.09 "Hg10 mi
2:54 pm54 °FMostly cloudy.10 mph69%30.09 "Hg10 mi
1:54 pm54 °FOvercast.12 mph69%30.08 "Hg10 mi
1:10 pm54 °FOvercast.13 mph67%30.09 "Hg10 mi
12:54 pm55 °FMostly cloudy.12 mph69%30.08 "Hg10 mi
11:54 am52 °FMore clouds than sun.9 mph80%30.06 "Hg10 mi
10:54 am53 °FOvercast.12 mph77%30.03 "Hg10 mi
9:54 am53 °FOvercast.12 mph74%30.01 "Hg10 mi
9:16 am54 °FPartly sunny.16 mph74%30.00 "Hg10 mi
9:01 am53 °FScattered clouds.13 mph77%29.99 "Hg10 mi
7:54 am53 °FPassing clouds.13 mph83%29.97 "Hg10 mi
7:11 am52 °FMore clouds than sun.6 mph89%29.95 "Hg10 mi
6:54 am52 °FOvercast.9 mph86%29.94 "Hg10 mi
6:23 am52 °FOvercast.10 mph89%29.94 "Hg10 mi
6:03 am53 °FMostly cloudy.9 mph83%29.94 "Hg10 mi
5:54 am53 °FMostly cloudy.10 mph83%29.93 "Hg10 mi
4:54 am52 °FClear.7 mph86%29.91 "Hg10 mi
3:54 am56 °FOvercast.14 mph77%29.89 "Hg10 mi
2:54 am57 °FPassing clouds.16 mph74%29.88 "Hg10 mi
1:54 am59 °FPartly cloudy.15 mph78%29.86 "Hg10 mi
1:42 am60 °FMostly cloudy.12 mph78%29.87 "Hg10 mi
12:54 am61 °FOvercast.13 mph75%29.84 "Hg10 mi
11:54 pm
Sun, May 19
64 °FOvercast.14 mph73%29.83 "Hg10 mi
10:54 pm65 °FMostly cloudy.7 mph81%29.80 "Hg10 mi
9:54 pm66 °FPassing clouds.6 mph73%29.76 "Hg10 mi
8:54 pm68 °FPassing clouds.6 mph68%29.73 "Hg10 mi
7:54 pm70 °FOvercast.9 mph76%29.70 "Hg10 mi
6:54 pm70 °FSunny.12 mph79%29.68 "Hg10 mi
Weather by CustomWeather, © 2019

See weather overview